Wind_Speed
31 32 33 32 32 33 34 34 34 33 33 33 34 33 32 31 30 28 27 26 25 24 24 23 23 22 22 22 23 24 25 26 27 28 28 29 30 30
34 34 35 34 34 34 34 34 34 34 34 34 33 33 32 30 29 27 26 25 25 24 23 23 22 22 22 22 22 23 23 24 25 26 27 29 29 30
34 34 35 34 33 33 33 33 34 34 34 33 31 31 30 29 27 25 24 24 24 23 23 22 23 23 22 22 22 22 23 24 25 25 26 27 28 30
31 32 33 32 31 31 31 31 31 31 30 29 29 27 26 25 23 23 23 23 23 22 22 22 22 22 22 22 23 23 23 24 24 25 26 27 28 29
27 28 28 28 27 27 27 27 27 27 26 24 23 23 22 20 20 21 21 21 21 21 21 21 21 21 21 22 23 24 24 23 24 24 25 26 27 28
22 22 22 22 22 21 21 20 20 19 19 18 18 17 17 17 18 19 20 21 20 20 20 20 21 21 21 21 21 22 23 23 24 25 25 26 27 27
16 16 16 16 15 16 15 15 15 14 14 14 14 15 16 17 18 19 19 19 19 19 19 20 20 20 20 20 20 21 22 23 23 25 26 27 28 29
13 14 14 13 13 14 13 13 12 12 13 13 14 14 15 16 17 18 18 18 18 19 19 19 19 19 19 20 20 20 21 22 23 24 25 27 29 30
14 14 14 14 14 14 13 13 13 13 13 13 14 14 15 16 16 16 17 17 17 18 18 18 18 18 18 18 19 20 21 22 23 24 26 27 29 30
16 16 16 15 15 15 14 13 13 14 14 13 14 14 14 15 15 15 16 16 16 17 17 17 17 17 17 18 18 19 19 20 22 24 26 28 29 32
16 16 16 16 16 16 16 15 14 14 14 13 13 13 13 14 14 14 14 14 14 14 14 14 15 15 16 17 17 18 19 20 21 23 25 27 29 31
14 15 15 16 16 16 16 15 14 13 13 12 12 13 12 12 12 12 12 11 11 11 11 11 12 13 14 15 15 16 17 18 20 22 23 25 28 30
12 13 13 14 15 15 15 14 13 13 12 12 11 11 10 10 9 9 9 8 8 8 8 9 10 10 12 12 14 15 16 17 19 21 23 24 26 28
9 11 12 13 13 13 13 13 13 13 12 11 10 9 8 7 7 6 5 5 4 4 5 6 7 7 9 10 11 12 14 16 18 20 22 23 25 26
6 8 11 12 13 13 13 12 12 12 11 9 8 7 6 5 4 3 3 2 1 2 3 4 5 6 8 9 10 12 14 16 18 20 22 23 24 24
4 7 9 11 12 13 12 12 12 11 10 9 8 7 5 5 4 4 3 2 1 1 3 4 5 6 7 9 11 13 14 16 18 20 21 23 24 25
9 9 10 11 12 12 12 12 11 11 10 10 8 7 6 6 5 5 4 4 4 4 4 5 6 7 8 10 11 13 15 16 18 20 21 23 25 26
15 14 13 13 13 13 13 12 11 11 11 10 9 9 9 8 7 6 6 6 5 5 5 5 6 7 9 10 12 14 15 17 18 20 21 23 25 27
20 19 18 17 16 15 15 14 14 13 12 11 11 11 10 9 8 8 7 6 5 5 4 5 6 7 9 11 13 14 15 17 18 20 22 23 25 26
22 22 20 19 18 18 17 16 15 14 13 13 12 11 10 9 9 8 7 6 5 4 4 5 6 8 10 11 13 14 16 17 19 20 21 23 24 25
24 23 22 21 20 19 18 17 16 15 14 13 12 11 11 10 9 7 6 5 5 5 5 6 8 9 11 12 14 15 17 18 19 21 22 23 24 25
22 22 22 21 20 19 18 17 16 15 15 14 13 12 11 9 8 8 7 6 6 6 6 7 9 10 12 14 15 16 17 19 20 21 22 23 24 25
21 21 20 20 19 19 18 17 16 15 14 14 13 12 11 10 9 8 7 7 7 7 8 9 10 12 13 14 16 17 18 20 21 21 22 23 24 25
Wind_Direction
257 255 255 253 253 252 253 254 256 258 258 259 258 257 258 258 259 260 262 266 268 271 272 274 275 277 280 282 281 279 277 275 272 270 269 268 268 268
255 255 255 255 253 255 255 256 258 259 260 261 259 258 256 255 256 257 259 263 265 268 270 271 273 276 278 279 279 278 277 276 274 272 270 270 270 270
253 254 255 255 255 256 257 259 259 259 259 260 258 256 254 254 254 254 258 260 263 265 267 269 272 274 277 277 277 277 277 276 275 274 274 272 272 272
253 254 255 255 254 256 257 256 258 259 259 259 256 252 250 249 251 254 257 259 262 264 267 269 273 275 276 278 278 277 278 277 276 275 275 275 275 275
252 253 252 251 251 254 254 255 255 255 255 254 249 246 244 246 249 252 255 258 261 264 268 270 272 276 276 280 280 277 276 276 276 275 275 276 277 277
249 249 248 246 247 248 250 251 251 251 249 247 243 241 242 245 249 252 256 258 261 265 268 270 273 277 279 281 283 279 275 275 275 275 274 274 276 277
242 241 241 241 243 243 245 246 245 244 243 241 240 240 242 246 250 253 257 260 263 266 270 273 275 278 281 282 283 282 277 275 276 277 276 276 276 277
245 243 241 240 241 241 238 239 239 239 238 237 237 240 244 248 251 255 258 262 265 268 271 274 276 279 282 284 284 284 281 278 278 278 279 280 280 279
252 246 243 242 242 243 240 237 235 233 234 235 237 240 245 249 253 256 260 263 266 269 272 276 279 281 282 284 286 286 285 284 284 284 283 282 282 282
251 248 244 242 241 241 239 236 234 233 233 234 237 240 245 250 253 256 259 263 266 270 273 277 281 283 284 286 289 291 291 291 291 290 289 288 287 286
250 245 240 237 235 235 234 234 232 231 230 232 235 239 243 247 250 254 258 262 267 272 277 281 283 287 289 291 294 297 299 300 300 298 296 295 293 292
244 240 237 233 230 229 229 228 227 228 227 230 233 237 242 246 248 251 256 261 268 274 280 284 289 292 296 300 303 304 307 309 309 308 307 305 302 301
237 232 229 226 223 222 220 219 219 219 221 224 230 233 236 239 243 247 252 258 266 275 283 291 298 302 306 310 313 316 317 319 320 320 319 316 314 312
235 225 219 214 211 209 209 209 208 210 214 218 223 225 227 232 237 241 246 249 260 277 294 307 315 321 325 328 330 331 332 334 335 335 334 331 329 326
221 209 202 198 198 197 196 197 200 204 206 208 210 211 211 213 217 210 205 216 249 297 324 340 346 346 348 350 350 347 346 346 348 349 349 348 347 345
152 172 176 178 181 181 182 183 184 187 191 190 190 190 182 180 175 163 154 137 109 55 39 26 17 11 7 3 360 358 357 358 359 1 2 3 2 1
94 126 143 154 161 164 165 166 169 172 171 170 170 167 161 155 147 138 126 111 103 84 61 45 36 28 20 14 10 8 7 7 7 7 8 9 10 10
84 100 117 130 138 144 149 151 149 149 151 151 147 142 140 137 134 126 118 112 100 82 63 45 33 25 18 14 11 11 11 10 10 9 9 11 12 12
81 90 99 109 118 125 130 133 135 135 135 134 134 132 131 128 126 122 115 107 95 79 60 42 29 20 14 11 12 11 11 11 11 11 11 12 12 13
79 85 92 99 105 112 118 121 123 125 126 126 126 126 125 124 121 116 109 100 89 73 52 34 23 16 12 10 9 8 8 9 8 8 9 10 11 11
78 83 88 93 99 105 109 112 114 116 118 118 119 120 119 117 113 108 101 92 80 65 48 34 23 16 11 9 8 8 7 6 5 5 5 5 6 6
78 82 87 91 95 99 104 107 108 110 111 112 113 113 111 108 105 100 93 83 72 57 42 30 22 16 13 10 8 5 3 2 1 0 0 1 0 0
78 82 85 88 92 96 99 102 104 106 106 107 107 105 103 100 96 90 82 72 59 44 33 25 18 14 10 7 4 2 0 359 358 357 357 357 357 357
Height
5816 5817 5819 5820 5822 5824 5825 5827 5829 5830 5832 5833 5834 5835 5836 5837 5838 5839 5840 5841 5842 5842 5842 5842 5842 5841 5841 5840 5839 5839 5839 5839 5839 5839 5839 5840 5840 5841
5807 5809 5810 5812 5813 5815 5817 5818 5820 5822 5823 5824 5826 5827 5828 5829 5831 5832 5833 5835 5836 5836 5836 5836 5836 5835 5835 5834 5833 5833 5833 5833 5832 5832 5832 5833 5833 5833
5798 5800 5802 5804 5805 5806 5808 5810 5811 5813 5814 5816 5817 5819 5820 5822 5824 5825 5827 5828 5829 5830 5830 5830 5830 5829 5829 5828 5827 5827 5827 5826 5826 5826 5826 5825 5825 5826
5789 5791 5793 5795 5796 5798 5800 5801 5803 5804 5806 5808 5809 5811 5813 5815 5817 5820 5821 5822 5823 5824 5824 5824 5824 5823 5823 5822 5822 5821 5821 5820 5820 5819 5819 5819 5818 5818
5782 5784 5785 5787 5789 5790 5792 5794 5795 5797 5799 5801 5803 5805 5807 5810 5812 5814 5816 5817 5818 5818 5819 5818 5818 5818 5817 5817 5816 5815 5814 5814 5814 5813 5812 5812 5811 5811
5775 5777 5779 5780 5782 5784 5786 5787 5789 5791 5793 5795 5798 5800 5802 5805 5807 5809 5811 5812 5813 5813 5813 5813 5813 5812 5811 5811 5810 5809 5808 5807 5807 5807 5806 5805 5804 5804
5769 5771 5773 5775 5777 5779 5781 5782 5785 5787 5789 5791 5794 5796 5798 5800 5803 5804 5805 5806 5807 5807 5807 5807 5807 5807 5806 5805 5804 5803 5802 5801 5800 5800 5799 5798 5797 5797
5764 5766 5768 5770 5772 5774 5776 5778 5781 5783 5785 5788 5790 5792 5794 5796 5798 5799 5800 5801 5802 5802 5802 5802 5802 5801 5800 5799 5798 5797 5796 5795 5794 5793 5792 5791 5790 5789
5759 5761 5763 5765 5767 5770 5772 5774 5777 5780 5782 5784 5786 5788 5790 5792 5793 5794 5795 5796 5796 5797 5797 5797 5797 5796 5795 5794 5793 5792 5791 5790 5788 5787 5786 5784 5782 5781
5753 5755 5757 5760 5762 5765 5768 5770 5773 5775 5778 5780 5782 5784 5786 5787 5789 5790 5791 5791 5792 5792 5793 5792 5792 5791 5791 5790 5789 5788 5786 5784 5783 5781 5779 5777 5774 5772
5747 5749 5751 5754 5757 5760 5763 5765 5768 5771 5774 5776 5778 5780 5782 5783 5784 5786 5787 5787 5788 5788 5788 5788 5788 5787 5787 5786 5784 5783 5781 5779 5777 5774 5772 5769 5766 5764
5741 5743 5746 5749 5752 5755 5758 5761 5764 5767 5770 5772 5775 5776 5778 5780 5781 5782 5783 5784 5784 5784 5784 5784 5784 5784 5783 5782 5780 5778 5776 5774 5772 5769 5765 5762 5758 5755
5736 5738 5741 5744 5747 5750 5754 5757 5760 5763 5766 5769 5771 5773 5775 5777 5778 5779 5780 5781 5781 5781 5782 5781 5781 5780 5779 5778 5776 5774 5772 5769 5767 5763 5759 5755 5751 5746
5731 5734 5736 5739 5743 5746 5750 5753 5757 5760 5763 5766 5768 5770 5772 5774 5775 5776 5777 5778 5779 5779 5779 5779 5778 5778 5777 5775 5773 5771 5768 5765 5762 5758 5754 5749 5744 5739
5728 5730 5733 5736 5740 5744 5747 5751 5754 5758 5761 5764 5766 5768 5770 5772 5773 5775 5776 5776 5777 5777 5777 5777 5776 5775 5774 5773 5771 5768 5765 5762 5758 5754 5749 5744 5739 5734
5726 5728 5731 5734 5738 5742 5746 5749 5753 5756 5759 5762 5765 5767 5769 5771 5772 5774 5775 5775 5776 5776 5776 5776 5775 5774 5773 5771 5769 5766 5763 5760 5756 5751 5747 5742 5737 5731
5727 5729 5731 5735 5738 5742 5746 5749 5752 5756 5759 5761 5764 5766 5768 5770 5772 5773 5774 5775 5776 5776 5776 5775 5774 5773 5772 5770 5768 5765 5762 5758 5754 5750 5746 5741 5736 5730
5732 5733 5735 5737 5740 5744 5747 5750 5753 5756 5759 5762 5765 5767 5769 5771 5772 5773 5774 5775 5776 5776 5776 5775 5774 5773 5772 5770 5767 5764 5761 5757 5754 5750 5745 5741 5736 5730
5740 5740 5741 5742 5744 5747 5750 5753 5756 5759 5761 5764 5766 5768 5770 5772 5773 5774 5775 5776 5776 5776 5776 5775 5774 5773 5771 5769 5766 5763 5760 5757 5753 5749 5745 5740 5736 5731
5748 5748 5748 5749 5750 5752 5754 5757 5759 5762 5764 5766 5768 5770 5772 5773 5774 5775 5776 5776 5776 5776 5776 5775 5774 5772 5770 5768 5766 5763 5759 5756 5753 5749 5745 5740 5736 5731
5757 5756 5756 5756 5757 5758 5760 5762 5763 5765 5767 5769 5771 5772 5774 5775 5776 5776 5777 5777 5777 5776 5776 5775 5773 5772 5770 5767 5765 5762 5759 5755 5752 5748 5744 5739 5735 5730
5765 5764 5763 5763 5764 5764 5766 5767 5768 5769 5771 5772 5774 5775 5776 5777 5777 5777 5778 5778 5777 5777 5776 5775 5773 5771 5769 5767 5764 5761 5758 5754 5750 5746 5742 5738 5734 5728
5772 5771 5771 5770 5770 5771 5771 5772 5773 5774 5775 5776 5777 5777 5778 5779 5779 5779 5779 5778 5778 5777 5776 5775 5773 5771 5768 5766 5763 5760 5757 5753 5749 5745 5741 5737 5732 5727